Location: Seddon's Corner
(50.0622°N, 96.2921°W)
Time: 11:45:24
(UTC-05:00)

Tiangong 2 - Visible Passes

Search period start: 21 May 2019 00:00
Search period end: 31 May 2019 00:00
Orbit: 379 x 387 km, 42.8° (Epoch: 21 May)

Date Brightness Start Highest point End Pass type
(mag) Time Alt. Az. Time Alt. Az. Time Alt. Az.
21 May 2.5 22:42:14 10° SW 22:44:35 19° S 22:44:54 19° SSE visible
22 May 2.7 23:18:24 10° SW 23:20:07 20° SSW 23:20:07 20° SSW visible
23 May 2.5 22:18:34 10° SW 22:21:01 21° S 22:22:55 13° SE visible
23 May 3.7 23:55:01 10° WSW 23:55:06 10° SW 23:55:06 10° SW visible
24 May 2.6 22:54:57 10° WSW 22:57:19 20° S 22:57:47 19° S visible
25 May 2.6 21:55:00 10° SW 21:57:28 21° S 21:59:57 10° SE visible
25 May 3.4 23:31:54 10° SW 23:32:33 12° SW 23:32:33 12° SW visible
26 May 2.9 22:31:35 10° WSW 22:33:42 17° SSW 22:35:07 13° SSE visible
28 May 3.3 22:08:24 10° SW 22:10:04 14° SSW 22:11:44 10° SSE visible
